Regional Weather Roundup
Issued by NWS

Home | Current Version | Previous Version | Text Only | Print | Product List | Glossary On
Versions: 1 2 3 4 5 6 7 8 9 10 11 12 13 14 15 16 17 18 19 20 21 22 23 24 25 26 27 28 29 30 31 32 33 34 35 36 37 38 39 40 41 42 43 44 45 46 47 48 49 50
000
ASUS43 KLSX 290707
RWRMO

WEATHER SUMMARY FOR MISSOURI
NATIONAL WEATHER SERVICE SPRINGFIELD MO
200 AM CDT TUE JUL 29 2014

NOTE: "FAIR" INDICATES FEW OR NO CLOUDS BELOW 12,000 FEET WITH NO
       SIGNIFICANT WEATHER AND/OR OBSTRUCTIONS TO VISIBILITY.
       CURRENT SKY AND/OR WEATHER CONDITIONS ARE NOT AVAILABLE FOR
       CHILLICOTHE AND FARMINGTON.

MOZ001>031-035>038-043-044-053-054-290800-
...NORTHERN AND WESTERN MISSOURI...

CITY           SKY/WX    TMP DP  RH WIND       PRES   REMARKS
KANSAS CTY INT CLEAR     63  58  83 NW3       30.18S
KANSAS C DTWN  CLEAR     68  61  78 CALM      30.17S
LEE`S SUMMIT   CLEAR     62  59  90 W3        30.18S
ST JOSEPH      CLEAR     58  56  93 CALM      30.18S
CHILLICOTHE      N/A     63  59  87 CALM      30.17S
KIRKSVILLE     CLEAR     57  55  93 CALM      30.16S

$$
MOZ066>068-077>081-088>096-101>105-290800-
...SOUTHWEST MISSOURI...

CITY           SKY/WX    TMP DP  RH WIND       PRES   REMARKS
SPRINGFIELD    CLEAR     63  57  81 CALM      30.16S
JOPLIN         PTCLDY    63  59  87 CALM      30.17S

$$
MOZ032>034-039>042-045>050-055>058-069>072-290800-
...CENTRAL MISSOURI...

CITY           SKY/WX    TMP DP  RH WIND       PRES   REMARKS
COLUMBIA       CLEAR     61  55  81 CALM      30.15F
JEFFERSON CITY CLEAR     59  54  83 CALM      30.15S
ROLLA          CLEAR     57  51  80 CALM      30.15S
SEDALIA        CLEAR     63  56  78 S5        30.18R
WHITEMAN AFB   CLEAR     60  51  70 CALM      30.16S
OSAGE BEACH    CLEAR     57  52  82 CALM      30.16F

$$
MOZ051-052-059>065-290800-
...EAST CENTRAL MISSOURI...

CITY           SKY/WX    TMP DP  RH WIND       PRES   REMARKS
ST LOUIS INTL  CLEAR     63  54  72 CALM      30.13F
SPIRIT OF STL  CLEAR     56  53  90 W3        30.13S
ST CHARLES     CLEAR     57  53  86 NW3       30.12F

$$
MOZ072>076-082>087-097>100-106>115-290800-
...SOUTH CENTRAL AND SOUTHEAST MISSOURI...

CITY           SKY/WX    TMP DP  RH WIND       PRES   REMARKS
CAPE GIRARDEAU CLEAR     60  56  86 W5        30.11R
FARMINGTON     CLEAR     61  54  77 NW5       30.16S
POPLAR BLUFF   CLEAR     64  56  75 N5        30.10S
WEST PLAINS    CLEAR     62  55  77 N5        30.17R

$$



USA.gov is the U.S. government's official web portal to all federal, state and local government web resources and services.